Change the Weather History Date:

Monday, February 4, 2013

  Actual Average (KSPI) Record (KSPI)
Temperature  
Mean Temperature 38 °F 28 °F  
Max Temperature 49 °F 37 °F 71 °F (1890)
Min Temperature 26 °F 20 °F -17 °F (1996)
Degree Days  
Heating Degree Days 28 37  
Month to date heating degree days 148  
Since 1 July heating degree days 3474  
Cooling Degree Days 0 0  
Month to date cooling degree days 0  
Year to date cooling degree days 0  
Moisture  
Dew Point 27 °F    
Average Humidity 74    
Maximum Humidity 89    
Minimum Humidity 53    
Precipitation  
Precipitation 0.00 in 0.06 in 2.03 in (1942)
Month to date precipitation 0.22  
Year to date precipitation 2.04  
Snow  
Snow 0.00 in 0.30 in 4.20 in (2014)
Month to date snowfall 0.9  
Since 1 July snowfall 13.5  
Snow Depth -    
Sea Level Pressure  
Sea Level Pressure 29.88 in    
Wind  
Wind Speed 12 mph (WSW)    
Max Wind Speed 17 mph    
Max Gust Speed 22 mph    
Visibility 10 miles    
Events      
T = Trace of Precipitation, MM = Missing Value Source: NWS Daily Summary

Daily Weather History Graph

Daily Weather History Graph

Search for Another Location

Airport or City:

Trip Planner

Search our weather history database for the weather conditions in past years. The results will help you decide how hot, cold, wet, or windy it might be!

Date:

Astronomy

Feb. 04, 2013 Rise Set
Actual Time 7:02 AM CST 5:23 PM CST
Civil Twilight 6:34 AM CST 5:51 PM CST
Nautical Twilight 6:02 AM CST 6:23 PM CST
Astronomical Twilight 5:31 AM CST 6:54 PM CST
Moon 1:37 AM CST (2/4) 11:47 AM CST (2/4)
Length of Visible Light 11h 17m
Length of Day
10h 21m
Last Quarter, 37% of the Moon is Illuminated
Feb 4
Last Quarter
Feb 10
New
Feb 17
First Quarter
Feb 25
Full
Mar 4
Last Quarter

Hourly Weather History & Observations

Time (CST) Temp. Windchill Dew Point Humidity Pressure Visibility Wind Dir Wind Speed Gust Speed Precip Events Conditions
12:15 AM 26.4 °F 16.6 °F 17.8 °F 70% 30.01 in 10.0 mi SSE 10.4 mph - N/A   Clear
12:35 AM 26.4 °F 17.3 °F 18.3 °F 71% 30.00 in 10.0 mi SE 9.2 mph - N/A   Clear
12:55 AM 26.1 °F 17.6 °F 18.1 °F 72% 30.00 in 10.0 mi SE 8.1 mph - N/A   Clear
1:15 AM 26.1 °F 16.2 °F 18.0 °F 71% 29.98 in 10.0 mi SSE 10.4 mph - N/A   Clear
1:35 AM 26.1 °F 15.6 °F 18.0 °F 71% 29.97 in 10.0 mi SE 11.5 mph - N/A   Clear
1:55 AM 26.2 °F 15.8 °F 18.1 °F 71% 29.96 in 10.0 mi SE 11.5 mph - N/A   Clear
2:15 AM 26.6 °F 16.2 °F 18.9 °F 73% 29.95 in 10.0 mi SSE 11.5 mph - N/A   Mostly Cloudy
2:35 AM 27.3 °F 15.6 °F 19.2 °F 72% 29.95 in 10.0 mi SSE 15.0 mph 19.6 mph N/A   Overcast
2:55 AM 27.9 °F 16.3 °F 19.8 °F 72% 29.93 in 10.0 mi SSE 15.0 mph - N/A   Overcast
3:15 AM 28.2 °F 17.2 °F 20.3 °F 72% 29.92 in 10.0 mi SSE 13.8 mph 21.9 mph N/A   Overcast
4:55 AM 29.1 °F 18.4 °F 21.9 °F 74% 29.88 in 10.0 mi SSE 13.8 mph - N/A   Overcast
5:15 AM 29.3 °F 18.2 °F 22.1 °F 75% 29.87 in 10.0 mi SSE 15.0 mph - N/A   Overcast
5:35 AM 29.7 °F 19.1 °F 22.3 °F 74% 29.86 in 10.0 mi SSE 13.8 mph - N/A   Overcast
5:55 AM 30.0 °F 19.1 °F 23.0 °F 75% 29.85 in 10.0 mi SSE 15.0 mph - N/A   Overcast
6:15 AM 30.6 °F 20.7 °F 23.5 °F 75% 29.85 in 10.0 mi South 12.7 mph - N/A   Overcast
6:35 AM 30.9 °F 20.2 °F 23.7 °F 75% 29.84 in 10.0 mi South 15.0 mph - N/A   Overcast
6:55 AM 31.1 °F 20.9 °F 23.9 °F 75% 29.83 in 10.0 mi SSE 13.8 mph - N/A   Mostly Cloudy
7:15 AM 31.1 °F 21.9 °F 24.3 °F 76% 29.84 in 10.0 mi South 11.5 mph - N/A   Scattered Clouds
7:35 AM 30.9 °F 22.8 °F 24.8 °F 78% 29.84 in 10.0 mi South 9.2 mph - N/A   Clear
7:55 AM 31.1 °F 22.4 °F 25.3 °F 79% 29.84 in 10.0 mi SSE 10.4 mph - N/A   Clear
8:15 AM 32.0 °F 23.0 °F 25.7 °F 78% 29.83 in 10.0 mi South 11.5 mph - N/A   Clear
8:35 AM 32.2 °F 23.2 °F 26.2 °F 79% 29.83 in 10.0 mi South 11.5 mph - N/A   Clear
8:55 AM 33.1 °F 23.4 °F 26.6 °F 77% 29.83 in 10.0 mi South 13.8 mph - N/A   Clear
9:15 AM 34.0 °F 24.2 °F 27.3 °F 77% 29.82 in 10.0 mi South 15.0 mph - N/A   Clear
9:35 AM 34.2 °F 25.2 °F 27.7 °F 77% 29.82 in 10.0 mi South 12.7 mph - N/A   Clear
9:55 AM 34.7 °F 26.4 °F 28.9 °F 79% 29.82 in 10.0 mi South 11.5 mph - N/A   Scattered Clouds
10:15 AM 35.1 °F 26.9 °F 29.1 °F 79% 29.82 in 10.0 mi South 11.5 mph - N/A   Clear
10:35 AM 37.0 °F 29.8 °F 30.0 °F 76% 29.82 in 10.0 mi South 10.4 mph - N/A   Scattered Clouds
10:55 AM 38.7 °F 31.4 °F 31.5 °F 75% 29.81 in 10.0 mi South 11.5 mph - N/A   Scattered Clouds
11:15 AM 41.2 °F 34.5 °F 31.3 °F 68% 29.81 in 10.0 mi SSW 11.5 mph - N/A   Clear
11:35 AM 42.8 °F 37.0 °F 32.0 °F 66% 29.81 in 10.0 mi SSW 10.4 mph - N/A   Clear
11:55 AM 44.4 °F 40.0 °F 32.4 °F 63% 29.80 in 10.0 mi South 8.1 mph - N/A   Clear
12:15 PM 48.0 °F - 32.5 °F 55% 29.80 in 10.0 mi WSW 11.5 mph 17.3 mph N/A   Clear
12:35 PM 47.8 °F - 31.5 °F 53% 29.79 in 10.0 mi WSW 15.0 mph - N/A   Clear
12:55 PM 48.2 °F - 32.5 °F 55% 29.79 in 10.0 mi WSW 12.7 mph 20.7 mph N/A   Clear
1:15 PM 48.7 °F - 32.2 °F 53% 29.79 in 10.0 mi West 16.1 mph - N/A   Clear
1:35 PM 49.1 °F - 33.4 °F 55% 29.79 in 10.0 mi West 15.0 mph - N/A   Clear
1:55 PM 48.9 °F - 32.9 °F 54% 29.79 in 10.0 mi West 17.3 mph - N/A   Clear
2:15 PM 49.1 °F - 33.8 °F 56% 29.79 in 10.0 mi WNW 13.8 mph - N/A   Clear
2:35 PM 49.3 °F - 33.4 °F 54% 29.80 in 10.0 mi WNW 11.5 mph - N/A   Clear
2:55 PM 48.6 °F - 33.3 °F 56% 29.80 in 10.0 mi NNW 12.7 mph - N/A   Clear
3:15 PM 47.5 °F - 32.5 °F 56% 29.81 in 10.0 mi NNW 15.0 mph - N/A   Clear
3:35 PM 46.2 °F 39.5 °F 32.0 °F 58% 29.82 in 10.0 mi NNW 16.1 mph - N/A   Clear
3:55 PM 43.7 °F 36.0 °F 32.0 °F 63% 29.82 in 10.0 mi North 17.3 mph 20.7 mph N/A   Clear
4:15 PM 42.1 °F 33.9 °F 31.5 °F 66% 29.82 in 10.0 mi North 17.3 mph - N/A   Clear
4:35 PM 39.7 °F 31.2 °F 30.9 °F 71% 29.83 in 10.0 mi North 16.1 mph - N/A   Clear
4:55 PM 37.8 °F 30.7 °F 30.7 °F 76% 29.83 in 10.0 mi NNW 10.4 mph - N/A   Clear
5:15 PM 36.0 °F 28.0 °F 29.3 °F 77% 29.85 in 10.0 mi NNW 11.5 mph - N/A   Clear
5:35 PM 33.8 °F 26.4 °F 28.9 °F 82% 29.86 in 10.0 mi NNW 9.2 mph - N/A   Clear
5:55 PM 34.2 °F 25.7 °F 28.9 °F 81% 29.88 in 10.0 mi NNW 11.5 mph - N/A   Clear
6:15 PM 33.4 °F 24.3 °F 28.8 °F 83% 29.90 in 10.0 mi NNW 12.7 mph - N/A   Clear
6:35 PM 32.2 °F 21.1 °F 28.2 °F 85% 29.90 in 10.0 mi NNW 17.3 mph - N/A   Clear
6:55 PM 31.5 °F 20.5 °F 27.7 °F 86% 29.91 in 10.0 mi NNW 16.1 mph - N/A   Clear
7:15 PM 30.2 °F 19.3 °F 26.6 °F 86% 29.92 in 10.0 mi North 15.0 mph - N/A   Clear
7:35 PM 29.7 °F 20.1 °F 26.6 °F 88% 29.92 in 10.0 mi North 11.5 mph - N/A   Clear
7:55 PM 29.3 °F 19.1 °F 26.4 °F 89% 29.92 in 10.0 mi North 12.7 mph - N/A   Clear
8:15 PM 29.1 °F 20.0 °F 25.7 °F 87% 29.94 in 10.0 mi North 10.4 mph - N/A   Clear
8:35 PM 28.9 °F 20.4 °F 25.7 °F 88% 29.95 in 10.0 mi North 9.2 mph - N/A   Scattered Clouds
8:55 PM 29.3 °F 19.1 °F 25.9 °F 87% 29.96 in 10.0 mi North 12.7 mph - N/A   Overcast
9:15 PM 29.3 °F 20.8 °F 25.7 °F 86% 29.96 in 10.0 mi NNW 9.2 mph - N/A   Overcast
9:35 PM 29.1 °F 20.6 °F 25.7 °F 87% 29.95 in 10.0 mi North 9.2 mph - N/A   Overcast
9:55 PM 29.1 °F 22.1 °F 25.5 °F 86% 29.95 in 10.0 mi North 6.9 mph - N/A   Overcast
10:15 PM 29.3 °F 21.5 °F 25.7 °F 86% 29.96 in 10.0 mi North 8.1 mph - N/A   Overcast
10:35 PM 29.3 °F 22.3 °F 25.5 °F 86% 29.96 in 10.0 mi NNW 6.9 mph - N/A   Overcast
10:55 PM 29.3 °F 22.3 °F 25.5 °F 86% 29.96 in 10.0 mi NW 6.9 mph - N/A   Overcast
11:15 PM 29.3 °F 23.2 °F 25.7 °F 86% 29.97 in 10.0 mi WNW 5.8 mph - N/A   Overcast
11:35 PM 29.1 °F 22.1 °F 25.7 °F 87% 29.97 in 10.0 mi NNW 6.9 mph - N/A   Overcast
11:55 PM 29.1 °F 21.3 °F 25.7 °F 87% 29.96 in 10.0 mi NW 8.1 mph - N/A   Overcast